Temperature
17 17 17 17 17 17 17 17 17 16 17 17 17 17 17 17 17 17 17 17 17 17 16 16 16 16 16 16 16 15 15 15 15 15 15 14 14 14
17 17 17 17 16 16 16 16 16 16 16 16 17 17 17 17 17 17 17 17 16 16 16 16 16 16 16 16 15 15 15 15 15 15 14 14 14 14
16 16 16 16 16 16 16 16 16 16 16 16 16 16 16 16 16 16 16 16 16 16 16 16 16 16 15 15 15 15 15 15 15 14 14 14 14 14
16 16 16 16 16 16 16 16 16 16 16 16 16 16 16 16 16 16 16 15 16 15 15 15 15 15 15 15 15 15 15 15 14 14 14 14 14 13
16 16 16 16 16 16 16 16 15 15 15 15 15 15 15 15 15 15 15 15 15 15 15 15 15 15 14 14 14 14 14 14 14 14 14 13 13 13
15 15 15 15 15 15 15 15 15 15 15 15 14 14 14 14 14 14 14 14 14 14 14 14 14 14 14 14 14 14 14 13 13 13 13 13 12 12
15 15 15 15 15 15 15 15 14 14 14 14 14 14 14 14 14 14 14 13 13 13 13 13 13 13 13 13 13 13 13 13 13 13 12 12 12 12
15 15 15 14 14 14 14 14 14 14 14 13 13 13 13 13 13 13 13 13 13 13 13 12 12 12 12 12 12 12 12 12 12 12 12 12 11 11
14 14 14 14 14 14 14 14 13 13 13 13 12 12 12 12 12 12 12 12 12 12 12 12 12 12 11 11 11 11 11 11 11 11 11 11 11 11
13 13 13 13 13 13 13 13 13 12 12 12 12 12 11 11 11 11 11 11 11 11 11 11 11 11 10 10 10 10 10 10 10 10 10 10 10 10
13 13 13 13 12 12 12 12 12 12 11 11 11 11 11 11 11 11 11 11 10 10 10 10 10 10 10 9 9 9 9 9 9 9 9 9 9 9
12 12 12 12 12 12 12 12 11 11 11 11 11 10 10 10 10 10 10 10 9 9 9 9 9 9 9 9 9 8 9 9 8 8 8 8 8 8
12 11 11 11 11 11 11 11 10 10 10 10 10 10 9 9 9 9 9 9 9 9 8 8 8 8 8 8 8 8 8 8 8 8 8 8 8 7
11 10 10 10 10 10 10 10 10 10 9 9 9 9 9 8 8 8 8 8 8 8 8 8 8 8 7 7 7 7 7 7 7 7 7 7 7 7
10 10 10 10 10 9 9 9 9 9 9 9 8 8 8 7 7 7 7 7 7 7 7 7 7 7 7 7 6 6 7 7 6 6 6 6 6 6
10 9 9 9 9 9 8 8 8 8 8 8 7 7 7 7 7 7 7 7 7 7 6 6 6 6 6 6 6 6 6 6 6 6 6 6 6 6
9 9 9 8 8 8 8 8 7 7 7 7 7 7 6 6 6 6 6 6 6 6 6 6 6 6 6 6 5 5 5 5 5 5 5 5 5 5
9 8 8 8 7 7 7 7 7 6 6 6 6 6 6 5 5 5 5 5 5 5 5 5 5 5 5 5 5 5 5 5 5 5 5 5 5 5
8 8 7 7 7 6 6 6 6 6 6 5 5 5 5 5 5 5 5 5 4 4 4 4 4 4 4 4 4 4 4 4 4 4 4 4 4 4
7 7 7 6 6 6 6 5 5 5 5 5 5 5 4 4 4 4 4 4 4 4 4 4 4 4 3 3 3 4 4 4 4 4 4 4 4 4
6 6 6 6 5 5 5 5 5 5 5 4 4 4 4 4 4 4 3 3 3 3 3 3 3 3 3 3 3 3 3 3 3 3 3 3 3 3
6 5 5 5 5 5 5 5 5 4 4 4 4 4 4 3 3 3 3 3 3 3 3 3 3 3 3 3 3 3 3 3 3 3 3 3 2 2
5 5 5 5 5 5 4 4 4 4 4 4 4 3 3 3 3 3 3 3 3 3 3 3 3 3 3 3 3 2 2 3 3 3 3 2 2 2
Wind_Speed
7 7 6 5 5 5 4 4 4 4 4 3 3 2 4 5 7 7 8 9 11 12 13 13 14 15 15 15 14 14 14 14 14 14 14 13 13 13
6 6 6 5 4 4 4 4 4 5 4 3 3 2 3 3 3 5 6 6 7 8 9 10 11 12 13 13 13 13 14 14 13 13 13 13 13 14
5 6 6 5 4 4 4 4 4 4 5 3 2 2 1 2 2 2 2 3 3 4 5 7 8 8 9 10 11 11 12 12 12 12 13 13 13 12
5 5 6 5 5 4 3 4 3 4 4 4 2 2 2 2 2 2 2 1 1 2 1 2 4 5 6 7 8 8 9 9 10 10 10 11 11 11
4 5 5 5 5 4 4 3 3 3 3 2 2 1 2 2 2 2 2 3 2 2 2 1 2 2 3 4 5 6 6 7 7 7 7 7 8 8
2 2 3 4 4 4 3 3 2 2 2 2 1 1 1 2 1 1 2 2 2 3 3 2 2 2 1 2 3 3 4 5 5 5 5 5 5 6
2 2 2 2 3 3 2 2 3 2 2 2 1 0 1 1 1 1 1 2 2 2 3 3 3 3 3 3 2 2 1 2 2 2 3 3 5 6
2 2 2 3 4 5 5 5 4 3 2 1 1 1 1 1 1 1 1 1 1 3 2 3 3 3 4 4 5 4 3 3 2 2 2 3 4 5
3 3 3 4 4 4 6 7 7 7 5 3 2 1 1 1 1 2 2 2 1 3 2 3 3 3 4 6 7 7 7 7 6 5 5 5 4 4
5 5 5 5 5 5 7 7 7 7 6 5 4 4 4 3 2 2 2 2 2 3 3 2 3 3 4 6 10 10 9 9 8 8 7 7 6 5
8 8 6 6 7 8 8 8 8 7 11 13 13 11 12 11 7 4 4 3 2 3 4 2 2 2 3 3 7 11 11 11 10 8 8 7 7 5
8 9 12 9 9 9 8 8 8 6 7 8 10 11 11 12 12 7 3 2 2 2 4 3 2 2 2 2 3 6 8 9 9 8 8 8 8 5
8 8 9 14 14 13 11 8 8 7 7 8 7 8 8 8 8 9 7 4 3 2 4 3 2 2 1 2 2 3 5 6 6 7 8 9 8 5
8 7 9 14 15 14 11 11 11 9 7 7 7 7 6 6 6 7 9 8 6 4 4 4 1 2 1 1 2 3 4 5 5 5 7 8 7 6
9 12 13 14 13 12 14 13 9 7 7 7 6 5 4 5 5 5 7 8 8 9 9 7 3 2 1 1 2 3 3 4 5 5 6 5 5 5
9 11 14 15 12 11 10 9 8 7 6 6 4 4 4 5 6 5 5 5 5 6 9 10 8 4 2 2 2 3 4 4 5 6 5 5 5 5
7 7 7 7 8 8 7 7 7 6 6 5 5 5 5 5 5 5 4 5 5 5 6 7 9 6 2 1 2 4 5 5 5 6 5 5 5 5
8 7 7 7 6 6 6 6 6 6 5 5 5 5 4 5 5 5 5 5 5 5 5 6 6 5 3 3 2 4 5 5 6 6 4 4 5 6
9 7 6 6 5 5 5 5 4 5 4 5 5 4 4 4 4 4 5 5 5 5 5 5 5 5 5 5 4 4 5 6 6 5 5 4 5 5
7 6 5 5 4 4 4 4 4 4 4 4 4 4 4 4 4 4 4 4 4 4 5 5 5 5 4 4 4 5 7 6 6 6 6 5 4 4
6 5 5 4 4 4 4 4 4 4 4 4 4 4 4 4 4 4 4 5 4 4 5 5 6 7 4 2 3 5 6 8 6 5 5 5 5 5
5 4 4 4 3 3 3 3 3 4 4 3 3 3 3 3 4 4 4 4 4 4 5 5 6 4 3 4 5 6 6 7 8 8 6 4 4 4
4 3 3 3 3 3 3 3 4 3 3 3 3 3 3 3 3 3 3 4 4 5 5 5 5 4 4 4 5 5 7 8 7 7 7 9 8 6
Wind_Direction
215 212 215 219 212 212 207 198 200 233 260 264 264 266 258 248 254 247 244 246 241 240 241 242 243 243 242 241 243 245 247 249 251 252 252 253 254 255
211 209 213 217 213 212 210 208 208 214 241 261 259 282 293 274 254 237 236 243 245 242 242 244 245 244 242 241 241 243 245 247 250 253 254 254 254 255
207 206 215 210 208 212 206 203 207 203 232 266 286 309 309 307 325 295 265 248 256 254 247 246 248 248 245 244 244 244 244 245 247 249 251 253 255 256
205 203 215 209 206 206 202 208 210 206 219 250 285 328 326 324 334 341 342 327 327 341 297 269 266 262 254 249 247 246 245 244 245 247 249 252 254 257
201 203 211 199 204 202 198 205 209 202 200 219 261 320 329 341 348 351 358 353 5 17 11 342 322 294 270 253 251 250 248 244 240 241 246 253 258 261
154 175 192 197 204 200 201 201 186 169 171 188 221 295 315 324 350 337 343 347 350 8 10 14 2 346 311 286 270 261 254 248 244 244 250 260 268 272
109 110 121 127 134 149 162 168 161 156 158 162 166 6 340 340 318 311 316 332 351 358 341 354 359 3 356 346 328 307 275 272 266 264 268 275 278 279
110 96 83 78 91 95 98 106 118 133 140 125 102 81 5 345 332 345 340 350 343 0 357 353 359 353 4 19 22 37 37 23 9 348 327 314 305 296
83 79 77 72 81 88 85 82 78 75 91 116 100 60 34 355 24 45 36 35 7 350 358 355 359 359 7 26 36 42 40 40 37 33 23 9 351 331
65 74 84 72 71 85 88 81 72 59 61 72 79 60 51 39 37 46 51 55 42 20 16 24 7 7 12 27 40 42 40 39 40 38 29 18 5 356
57 58 70 77 73 89 95 90 77 62 62 67 69 66 61 55 55 58 49 52 32 18 15 22 8 5 10 24 32 37 41 39 35 30 24 14 3 352
64 56 56 66 72 82 91 92 85 71 67 64 57 52 52 51 48 47 43 50 47 19 5 5 1 3 357 4 8 17 28 28 27 21 14 6 359 351
73 63 57 64 69 68 72 77 84 85 76 71 63 52 46 42 38 38 38 46 50 33 359 357 357 1 349 318 335 358 9 8 9 8 6 358 350 345
78 71 66 66 67 66 69 71 74 76 75 68 61 49 41 35 29 32 41 47 50 44 8 11 8 350 339 328 331 342 349 0 3 358 356 352 347 341
82 79 72 67 67 65 60 60 61 66 70 69 63 49 34 25 24 29 34 39 44 41 33 30 25 4 353 324 327 335 336 343 354 352 349 349 342 339
83 74 68 64 64 60 55 53 55 59 67 68 62 45 35 37 36 29 28 24 31 22 16 19 18 10 6 345 334 336 337 331 337 340 337 335 342 346
89 72 64 61 59 56 54 52 50 50 53 52 53 50 43 40 34 27 31 33 33 16 5 2 6 9 354 326 349 349 342 337 336 336 331 333 341 350
82 76 69 68 67 62 59 53 47 45 44 49 50 48 43 38 33 29 30 31 26 14 6 358 356 4 15 33 10 343 343 339 337 337 334 328 336 351
81 80 76 71 67 61 57 56 47 37 38 44 44 38 36 35 33 27 24 23 18 10 4 1 6 11 6 356 357 7 343 336 335 338 340 331 328 338
77 81 76 70 64 59 52 47 43 39 38 37 35 31 29 31 30 24 20 14 7 1 360 4 6 0 348 331 324 331 342 336 333 332 335 332 325 317
76 75 71 65 57 52 48 45 42 38 33 31 28 24 22 25 23 16 12 6 4 1 355 352 339 325 305 307 325 340 346 349 342 327 329 329 332 336
79 75 66 61 55 49 44 40 38 33 28 27 20 15 14 17 15 9 6 3 359 352 342 340 343 352 4 360 349 341 341 347 354 358 358 346 334 333
84 79 70 57 47 42 38 35 32 25 19 15 11 7 9 12 8 5 2 1 354 353 352 351 355 1 2 355 349 346 349 351 352 356 1 2 358 343
Height
1549 1551 1552 1553 1554 1555 1556 1557 1558 1557 1556 1557 1557 1558 1558 1558 1558 1558 1558 1558 1559 1559 1559 1560 1560 1560 1560 1561 1561 1561 1561 1561 1562 1562 1562 1562 1562 1562
1545 1546 1547 1548 1549 1550 1551 1552 1553 1553 1552 1553 1553 1554 1554 1554 1554 1554 1554 1554 1554 1554 1554 1555 1555 1555 1555 1556 1556 1556 1556 1556 1557 1557 1557 1557 1557 1557
1539 1540 1542 1543 1544 1545 1546 1547 1548 1549 1548 1549 1550 1550 1550 1550 1550 1550 1550 1550 1550 1550 1550 1550 1550 1550 1550 1551 1551 1551 1551 1551 1551 1551 1551 1551 1551 1552
1535 1536 1537 1539 1540 1541 1542 1543 1544 1545 1545 1545 1546 1546 1546 1546 1546 1546 1545 1545 1545 1545 1545 1545 1545 1545 1545 1545 1545 1546 1546 1546 1546 1546 1546 1546 1546 1546
1531 1532 1533 1535 1536 1537 1538 1539 1540 1541 1541 1541 1541 1542 1542 1542 1542 1541 1541 1541 1541 1540 1540 1540 1540 1540 1540 1540 1540 1540 1541 1541 1541 1541 1540 1540 1540 1540
1528 1529 1530 1532 1533 1534 1535 1536 1536 1537 1537 1538 1538 1538 1538 1538 1538 1537 1537 1536 1536 1536 1535 1536 1536 1535 1535 1535 1535 1535 1535 1535 1535 1535 1535 1535 1535 1535
1525 1526 1527 1528 1529 1531 1532 1532 1533 1533 1533 1534 1534 1534 1534 1534 1534 1533 1532 1532 1531 1531 1531 1531 1531 1531 1531 1530 1530 1530 1530 1530 1530 1529 1529 1530 1530 1529
1523 1524 1525 1526 1527 1528 1529 1529 1530 1530 1530 1531 1531 1531 1531 1531 1530 1530 1529 1528 1527 1528 1528 1528 1528 1527 1526 1526 1526 1525 1525 1525 1524 1524 1524 1524 1524 1523
1522 1523 1524 1525 1526 1526 1527 1527 1527 1527 1528 1529 1529 1528 1528 1528 1528 1527 1526 1526 1525 1525 1525 1524 1524 1523 1523 1522 1522 1522 1521 1520 1520 1519 1519 1519 1518 1518
1522 1523 1524 1524 1525 1525 1526 1526 1526 1526 1527 1527 1527 1527 1527 1527 1526 1526 1525 1524 1524 1524 1523 1522 1522 1521 1520 1519 1519 1519 1518 1517 1516 1515 1515 1514 1514 1513
1523 1524 1524 1524 1525 1525 1526 1526 1526 1526 1526 1526 1526 1526 1526 1526 1525 1525 1524 1523 1523 1523 1522 1521 1520 1519 1519 1518 1518 1517 1516 1515 1514 1513 1512 1511 1510 1509
1524 1524 1525 1525 1526 1526 1526 1526 1525 1526 1526 1526 1526 1526 1526 1526 1525 1525 1524 1523 1522 1522 1521 1521 1520 1519 1518 1517 1517 1516 1514 1513 1512 1511 1510 1508 1507 1505
1526 1526 1526 1527 1527 1527 1527 1527 1527 1527 1527 1527 1527 1527 1527 1526 1525 1525 1524 1523 1523 1522 1521 1520 1519 1518 1517 1516 1515 1514 1513 1511 1510 1508 1507 1506 1504 1502
1529 1529 1529 1529 1529 1529 1529 1529 1529 1529 1529 1528 1528 1528 1527 1527 1526 1525 1524 1523 1522 1522 1520 1519 1518 1517 1516 1515 1514 1512 1511 1510 1508 1506 1504 1503 1501 1499
1531 1532 1532 1532 1531 1531 1531 1531 1531 1531 1530 1529 1529 1528 1528 1527 1526 1525 1524 1523 1523 1521 1520 1519 1517 1516 1515 1514 1512 1511 1509 1508 1506 1504 1502 1500 1498 1495
1534 1535 1535 1534 1534 1534 1533 1533 1532 1532 1531 1530 1530 1529 1529 1528 1527 1526 1525 1524 1522 1521 1520 1518 1517 1515 1514 1513 1511 1510 1508 1506 1504 1502 1500 1497 1495 1493
1537 1537 1537 1537 1536 1536 1535 1535 1534 1533 1532 1531 1531 1530 1529 1528 1527 1526 1525 1523 1522 1520 1519 1518 1516 1515 1513 1512 1510 1509 1507 1504 1502 1500 1497 1495 1493 1491
1540 1539 1539 1538 1538 1538 1537 1536 1535 1534 1533 1533 1532 1531 1530 1529 1528 1527 1525 1524 1522 1520 1519 1517 1515 1514 1513 1511 1510 1507 1505 1503 1500 1498 1495 1493 1490 1488
1541 1541 1540 1540 1540 1539 1538 1537 1536 1535 1535 1534 1533 1532 1531 1529 1528 1527 1526 1524 1522 1521 1519 1517 1515 1513 1511 1510 1508 1507 1504 1501 1498 1496 1494 1491 1488 1486
1543 1543 1542 1542 1541 1540 1540 1539 1538 1537 1535 1534 1533 1532 1531 1530 1529 1527 1526 1524 1523 1521 1519 1517 1515 1513 1511 1510 1507 1505 1503 1500 1497 1494 1492 1489 1487 1484
1545 1544 1544 1544 1543 1542 1541 1540 1539 1537 1536 1535 1534 1533 1532 1530 1529 1528 1526 1525 1523 1521 1519 1517 1515 1514 1511 1509 1506 1504 1501 1499 1496 1493 1490 1487 1484 1482
1546 1546 1546 1545 1544 1543 1542 1541 1540 1538 1537 1536 1535 1533 1532 1531 1529 1528 1526 1525 1523 1521 1519 1517 1515 1513 1510 1508 1505 1503 1500 1498 1495 1492 1489 1486 1484 1480
1548 1548 1547 1547 1546 1544 1543 1542 1540 1539 1538 1536 1535 1534 1532 1531 1529 1528 1526 1525 1523 1521 1519 1517 1515 1512 1510 1508 1505 1502 1499 1496 1493 1491 1488 1486 1483 1481